CLX954 KDEN-KIAD

Flight info

Callsign CLX954
Flight time 2h 19m
Altitude 37000
Route EMMYS8 ZIRKL PWE SPI J80 VHP APE MGW GIBBZ5
Aircraft B748/H-SDE3FGHIM1M2RWXY/LB1

Departure

Time 2026-05-06 12:10
Airport Denver International Airport (KDEN)

Arrival

Time 2026-05-06 14:30
Airport Washington Dulles International Airport (KIAD)
Time Latitude Longitude Altitude Speed Heading
2026-05-06 11:59 39.85113 -104.68863 5368 ft 0 kts 358°
2026-05-06 12:06 39.85119 -104.68864 5356 ft 4 kts 358°
2026-05-06 12:07 39.85154 -104.68869 5365 ft 3 kts 337°
2026-05-06 12:07 39.85184 -104.68903 5366 ft 9 kts 304°
2026-05-06 12:07 39.85195 -104.69033 5359 ft 20 kts 267°
2026-05-06 12:07 39.85193 -104.69198 5354 ft 19 kts 271°
2026-05-06 12:08 39.85198 -104.69379 5352 ft 20 kts 272°
2026-05-06 12:08 39.85205 -104.69535 5357 ft 12 kts 274°
2026-05-06 12:08 39.85209 -104.69612 5360 ft 7 kts 275°
2026-05-06 12:08 39.85215 -104.69629 5360 ft 0 kts 304°
2026-05-06 12:09 39.85234 -104.69650 5360 ft 14 kts 329°
2026-05-06 12:09 39.85335 -104.69662 5362 ft 13 kts
2026-05-06 12:09 39.85535 -104.69658 5368 ft 58 kts
2026-05-06 12:09 39.85910 -104.69654 5373 ft 102 kts
2026-05-06 12:10 39.87201 -104.69643 5402 ft 169 kts
2026-05-06 12:10 39.88445 -104.69647 5910 ft 181 kts 360°
2026-05-06 12:10 39.89277 -104.69657 6506 ft 186 kts
2026-05-06 12:10 39.91256 -104.69544 6565 ft 238 kts 18°
2026-05-06 12:11 39.92626 -104.68353 7105 ft 243 kts 51°
2026-05-06 12:11 39.93220 -104.67085 7364 ft 244 kts 68°
2026-05-06 12:11 39.93737 -104.64933 7537 ft 256 kts 73°
2026-05-06 12:11 39.94316 -104.62676 7707 ft 269 kts 69°
2026-05-06 12:12 39.94862 -104.60315 8234 ft 276 kts 85°
2026-05-06 12:12 39.94986 -104.57808 9040 ft 279 kts 86°
2026-05-06 12:12 39.95061 -104.55297 9812 ft 284 kts 88°
2026-05-06 12:12 39.95122 -104.52622 10122 ft 305 kts 87°
2026-05-06 12:13 39.95203 -104.49706 10140 ft 336 kts 87°
2026-05-06 12:13 39.95300 -104.46521 10166 ft 366 kts 87°
2026-05-06 12:13 39.95396 -104.43145 10719 ft 378 kts 88°
2026-05-06 12:13 39.95352 -104.39682 11353 ft 388 kts 98°
2026-05-06 12:14 39.94750 -104.36213 12000 ft 397 kts 106°
2026-05-06 12:14 39.93916 -104.32761 12748 ft 405 kts 108°
2026-05-06 12:14 39.93080 -104.29260 13483 ft 412 kts 107°
2026-05-06 12:14 39.92318 -104.25570 14200 ft 420 kts 105°
2026-05-06 12:15 39.91573 -104.21861 14846 ft 428 kts 104°
2026-05-06 12:15 39.90986 -104.18043 15493 ft 434 kts 101°
2026-05-06 12:15 39.90426 -104.14135 16125 ft 441 kts 101°
2026-05-06 12:15 39.89879 -104.10180 16747 ft 448 kts 100°
2026-05-06 12:16 39.89321 -104.06160 17359 ft 455 kts 101°
2026-05-06 12:16 39.88742 -104.02080 17965 ft 461 kts 101°
2026-05-06 12:16 39.88153 -103.97958 18528 ft 468 kts 101°
2026-05-06 12:16 39.87565 -103.93805 19071 ft 474 kts 100°
2026-05-06 12:17 39.87277 -103.89469 19616 ft 479 kts 88°
2026-05-06 12:17 39.87527 -103.85135 20152 ft 483 kts 84°
2026-05-06 12:17 39.87875 -103.80761 20704 ft 487 kts 84°
2026-05-06 12:17 39.88210 -103.76361 21228 ft 491 kts 85°
2026-05-06 12:18 39.88570 -103.71908 21725 ft 495 kts 81°
2026-05-06 12:18 39.89079 -103.67448 22204 ft 500 kts 82°
2026-05-06 12:18 39.89590 -103.62966 22663 ft 504 kts 82°
2026-05-06 12:18 39.90115 -103.58414 23116 ft 509 kts 82°
2026-05-06 12:19 39.90635 -103.53898 23544 ft 513 kts 82°
2026-05-06 12:19 39.91165 -103.49230 23938 ft 517 kts 82°
2026-05-06 12:19 39.91690 -103.44573 24294 ft 521 kts 82°
2026-05-06 12:19 39.92221 -103.39877 24648 ft 525 kts 82°
2026-05-06 12:20 39.92754 -103.35160 25001 ft 529 kts 83°
2026-05-06 12:20 39.93277 -103.30496 25355 ft 532 kts 83°
2026-05-06 12:20 39.93813 -103.25687 25690 ft 535 kts 83°
2026-05-06 12:20 39.94355 -103.20811 26050 ft 539 kts 83°
2026-05-06 12:21 39.94886 -103.16032 26417 ft 542 kts 83°
2026-05-06 12:21 39.95425 -103.11160 26774 ft 545 kts 83°
2026-05-06 12:21 39.95970 -103.06193 27135 ft 548 kts 84°
2026-05-06 12:21 39.96502 -103.01333 27509 ft 551 kts 84°
2026-05-06 12:22 39.97044 -102.96363 27854 ft 554 kts 84°
2026-05-06 12:22 39.97585 -102.91388 28222 ft 557 kts 84°
2026-05-06 12:22 39.98127 -102.86380 28588 ft 560 kts 84°
2026-05-06 12:22 39.98672 -102.81321 29040 ft 562 kts 84°
2026-05-06 12:23 39.99212 -102.76292 29584 ft 561 kts 84°
2026-05-06 12:23 39.99751 -102.71258 30142 ft 561 kts 84°
2026-05-06 12:23 40.00288 -102.66204 30589 ft 562 kts 84°
2026-05-06 12:23 40.00823 -102.61155 31017 ft 562 kts 84°
2026-05-06 12:24 40.01357 -102.56091 31440 ft 562 kts 84°
2026-05-06 12:24 40.01888 -102.51042 31884 ft 563 kts 84°
2026-05-06 12:24 40.02418 -102.45973 32312 ft 564 kts 84°
2026-05-06 12:24 40.02947 -102.40895 32739 ft 564 kts 84°
2026-05-06 12:25 40.03471 -102.35834 33144 ft 566 kts 84°
2026-05-06 12:25 40.03998 -102.30735 33534 ft 567 kts 84°
2026-05-06 12:25 40.04523 -102.25625 33937 ft 568 kts 84°
2026-05-06 12:25 40.05045 -102.20525 34314 ft 569 kts 84°
2026-05-06 12:26 40.05568 -102.15390 34661 ft 570 kts 84°
2026-05-06 12:26 40.06089 -102.10261 35020 ft 571 kts 84°
2026-05-06 12:26 40.06608 -102.05117 35380 ft 571 kts 84°
2026-05-06 12:26 40.07126 -101.99960 35723 ft 572 kts 84°
2026-05-06 12:27 40.07640 -101.94828 36048 ft 573 kts 84°
2026-05-06 12:27 40.08155 -101.89652 36382 ft 574 kts 84°
2026-05-06 12:27 40.08667 -101.84486 36730 ft 575 kts 84°
2026-05-06 12:27 40.09178 -101.79309 37060 ft 575 kts 84°
2026-05-06 12:28 40.10193 -101.68955 37134 ft 572 kts 84°
2026-05-06 12:28 40.11194 -101.58636 37142 ft 574 kts 84°
2026-05-06 12:29 40.12188 -101.48309 37143 ft 574 kts 84°
2026-05-06 12:29 40.13170 -101.37958 37147 ft 573 kts 86°
2026-05-06 12:30 40.13593 -101.27574 37142 ft 573 kts 90°
2026-05-06 12:30 40.13932 -101.17147 37152 ft 575 kts 89°
2026-05-06 12:31 40.14295 -101.06685 37154 ft 575 kts 90°
2026-05-06 12:31 40.14619 -100.96244 37156 ft 575 kts 90°
2026-05-06 12:32 40.14957 -100.85795 37165 ft 575 kts 90°
2026-05-06 12:32 40.15269 -100.75333 37148 ft 576 kts 90°
2026-05-06 12:33 40.15583 -100.64892 37146 ft 576 kts 90°
2026-05-06 12:33 40.15880 -100.54432 37142 ft 577 kts 90°
2026-05-06 12:34 40.16174 -100.43903 37146 ft 579 kts 90°
2026-05-06 12:34 40.16455 -100.33401 37153 ft 579 kts 90°
2026-05-06 12:35 40.16729 -100.22887 37148 ft 579 kts 90°
2026-05-06 12:35 40.16993 -100.12338 37158 ft 580 kts 90°
2026-05-06 12:36 40.17248 -100.01789 37157 ft 580 kts 91°
2026-05-06 12:36 40.17493 -99.91235 37158 ft 580 kts 91°
2026-05-06 12:37 40.17729 -99.80694 37152 ft 582 kts 91°
2026-05-06 12:37 40.17956 -99.70081 37157 ft 584 kts 91°
2026-05-06 12:38 40.18174 -99.59474 37152 ft 584 kts 91°
2026-05-06 12:38 40.18382 -99.48843 37156 ft 584 kts 91°
2026-05-06 12:39 40.18580 -99.38199 37140 ft 587 kts 91°
2026-05-06 12:39 40.18770 -99.27542 37143 ft 586 kts 91°
2026-05-06 12:40 40.18949 -99.16899 37157 ft 586 kts 91°
2026-05-06 12:40 40.19119 -99.06237 37153 ft 587 kts 91°
2026-05-06 12:41 40.19280 -98.95508 37157 ft 589 kts 91°
2026-05-06 12:41 40.19431 -98.84820 37150 ft 589 kts 91°
2026-05-06 12:42 40.19572 -98.74095 37137 ft 589 kts 91°
2026-05-06 12:42 40.19702 -98.63357 37157 ft 592 kts 92°
2026-05-06 12:43 40.19825 -98.52606 37151 ft 591 kts 92°
2026-05-06 12:43 40.19936 -98.41861 37142 ft 591 kts 92°
2026-05-06 12:44 40.20038 -98.31128 37145 ft 593 kts 92°
2026-05-06 12:44 40.20130 -98.20308 37144 ft 594 kts 92°
2026-05-06 12:45 40.20212 -98.09525 37133 ft 593 kts 92°
2026-05-06 12:46 40.20316 -97.93332 37101 ft 594 kts 92°
2026-05-06 12:46 40.20373 -97.82437 37152 ft 601 kts 92°
2026-05-06 12:47 40.20422 -97.71571 37159 ft 600 kts 92°
2026-05-06 12:47 40.20458 -97.60596 37160 ft 600 kts 93°
2026-05-06 12:48 40.20485 -97.49728 37128 ft 602 kts 93°
2026-05-06 12:48 40.20502 -97.38718 37121 ft 602 kts 93°
2026-05-06 12:49 40.20508 -97.27782 37130 ft 602 kts 93°
2026-05-06 12:49 40.20505 -97.16899 37131 ft 602 kts 93°
2026-05-06 12:50 40.20490 -97.05885 37137 ft 602 kts 93°
2026-05-06 12:50 40.20466 -96.94941 37140 ft 602 kts 93°
2026-05-06 12:51 40.20431 -96.84041 37136 ft 602 kts 93°
2026-05-06 12:51 40.20385 -96.73066 37145 ft 604 kts 93°
2026-05-06 12:52 40.20330 -96.62013 37145 ft 604 kts 93°
2026-05-06 12:52 40.20264 -96.51098 37125 ft 604 kts 94°
2026-05-06 12:53 40.20187 -96.40088 37125 ft 606 kts 94°
2026-05-06 12:53 40.20115 -96.30859 37124 ft 606 kts 94°
2026-05-06 12:54 40.19952 -96.18054 37121 ft 605 kts 96°
2026-05-06 12:54 40.19698 -96.08853 37114 ft 605 kts 95°
2026-05-06 12:55 40.19392 -95.97784 37114 ft 608 kts 96°
2026-05-06 12:55 40.19060 -95.86737 37117 ft 609 kts 95°
2026-05-06 12:56 40.18732 -95.75688 37107 ft 608 kts 96°
2026-05-06 12:56 40.18381 -95.64675 37115 ft 613 kts 96°
2026-05-06 12:57 40.18029 -95.53583 37117 ft 611 kts 96°
2026-05-06 12:57 40.17657 -95.42495 37140 ft 610 kts 96°
2026-05-06 12:58 40.17280 -95.31402 37123 ft 611 kts 96°
2026-05-06 12:58 40.16886 -95.20218 37112 ft 611 kts 96°
2026-05-06 12:59 40.16489 -95.09192 37116 ft 612 kts 96°
2026-05-06 12:59 40.16078 -94.98090 37119 ft 612 kts 96°
2026-05-06 13:00 40.15654 -94.86958 37115 ft 615 kts 96°
2026-05-06 13:00 40.15220 -94.75779 37126 ft 618 kts 97°
2026-05-06 13:01 40.14770 -94.64545 37110 ft 620 kts 97°
2026-05-06 13:01 40.14311 -94.53276 37106 ft 622 kts 97°
2026-05-06 13:02 40.13836 -94.41964 37104 ft 623 kts 97°
2026-05-06 13:02 40.13353 -94.30682 37104 ft 623 kts 97°
2026-05-06 13:03 40.12858 -94.19391 37103 ft 623 kts 97°
2026-05-06 13:03 40.12351 -94.08070 37099 ft 624 kts 97°
2026-05-06 13:04 40.11833 -93.96761 37103 ft 624 kts 97°
2026-05-06 13:04 40.11304 -93.85446 37103 ft 624 kts 97°
2026-05-06 13:05 40.10763 -93.74145 37102 ft 627 kts 97°
2026-05-06 13:05 40.10212 -93.62791 37102 ft 626 kts 97°
2026-05-06 13:06 40.09647 -93.51460 37105 ft 626 kts 97°
2026-05-06 13:06 40.09072 -93.40109 37102 ft 626 kts 97°
2026-05-06 13:07 40.08487 -93.28784 37103 ft 626 kts 97°
2026-05-06 13:07 40.07889 -93.17437 37103 ft 626 kts 98°
2026-05-06 13:08 40.07282 -93.06116 37099 ft 626 kts 98°
2026-05-06 13:08 40.06662 -92.94781 37102 ft 626 kts 97°
2026-05-06 13:09 40.06033 -92.83453 37102 ft 626 kts 98°
2026-05-06 13:09 40.05391 -92.72122 37102 ft 626 kts 98°
2026-05-06 13:10 40.04737 -92.60778 37094 ft 630 kts 98°
2026-05-06 13:10 40.04073 -92.49409 37091 ft 627 kts 98°
2026-05-06 13:11 40.03395 -92.38057 37095 ft 627 kts 98°
2026-05-06 13:11 40.02709 -92.26707 37091 ft 627 kts 98°
2026-05-06 13:12 40.02012 -92.15386 37086 ft 626 kts 98°
2026-05-06 13:12 40.01303 -92.04045 37084 ft 626 kts 98°
2026-05-06 13:13 40.00579 -91.92682 37087 ft 633 kts 98°
2026-05-06 13:13 39.99844 -91.81243 37078 ft 633 kts 98°
2026-05-06 13:14 39.99093 -91.69797 37081 ft 633 kts 98°
2026-05-06 13:14 39.98334 -91.58374 37079 ft 633 kts 98°
2026-05-06 13:15 39.97560 -91.46924 37063 ft 634 kts 98°
2026-05-06 13:15 39.96778 -91.35486 37068 ft 634 kts 98°
2026-05-06 13:16 39.95983 -91.24060 37067 ft 634 kts 98°
2026-05-06 13:16 39.95178 -91.12629 37047 ft 633 kts 98°
2026-05-06 13:17 39.94359 -91.01182 37061 ft 634 kts 99°
2026-05-06 13:17 39.93532 -90.89767 37045 ft 634 kts 99°
2026-05-06 13:18 39.92690 -90.78321 37046 ft 634 kts 99°
2026-05-06 13:18 39.91840 -90.66904 37044 ft 633 kts 99°
2026-05-06 13:19 39.90977 -90.55478 37038 ft 633 kts 99°
2026-05-06 13:19 39.90105 -90.44079 37040 ft 633 kts 99°
2026-05-06 13:20 39.89228 -90.32761 37054 ft 633 kts 99°
2026-05-06 13:20 39.88327 -90.21277 37059 ft 633 kts 99°
2026-05-06 13:21 39.87427 -90.09955 37050 ft 633 kts 99°
2026-05-06 13:21 39.86503 -89.98479 37031 ft 633 kts 99°
2026-05-06 13:22 39.85583 -89.87183 37036 ft 632 kts 99°
2026-05-06 13:22 39.84644 -89.75800 37042 ft 632 kts 99°
2026-05-06 13:23 39.83967 -89.64331 37067 ft 636 kts 91°
2026-05-06 13:23 39.84089 -89.52897 37024 ft 636 kts 91°
2026-05-06 13:24 39.84108 -89.41326 37032 ft 636 kts 91°
2026-05-06 13:24 39.84180 -89.29892 37022 ft 636 kts 91°
2026-05-06 13:25 39.84198 -89.18407 37011 ft 636 kts 91°
2026-05-06 13:25 39.84231 -89.06891 37002 ft 636 kts 91°
2026-05-06 13:26 39.84238 -88.95397 37043 ft 635 kts 92°
2026-05-06 13:26 39.84240 -88.83909 37020 ft 635 kts 92°
2026-05-06 13:27 39.84229 -88.72402 37042 ft 634 kts 92°
2026-05-06 13:27 39.84206 -88.60926 37028 ft 634 kts 92°
2026-05-06 13:28 39.84174 -88.49468 37006 ft 634 kts 92°
2026-05-06 13:28 39.84121 -88.37978 37014 ft 634 kts 92°
2026-05-06 13:29 39.84061 -88.26518 37011 ft 634 kts 92°
2026-05-06 13:29 39.83991 -88.15071 37012 ft 634 kts 92°
2026-05-06 13:30 39.83913 -88.03607 37000 ft 633 kts 92°
2026-05-06 13:30 39.83821 -87.92148 37001 ft 633 kts 92°
2026-05-06 13:31 39.83720 -87.80705 37007 ft 633 kts 92°
2026-05-06 13:31 39.83606 -87.69262 36981 ft 633 kts 93°
2026-05-06 13:32 39.83481 -87.57809 37018 ft 633 kts 93°
2026-05-06 13:32 39.83346 -87.46358 37010 ft 633 kts 93°
2026-05-06 13:33 39.83198 -87.34890 37002 ft 633 kts 93°
2026-05-06 13:33 39.83040 -87.23448 36990 ft 633 kts 93°
2026-05-06 13:34 39.82870 -87.12010 36998 ft 633 kts 93°
2026-05-06 13:34 39.82690 -87.00584 36997 ft 633 kts 94°
2026-05-06 13:35 39.82497 -86.89130 37000 ft 632 kts 94°
2026-05-06 13:35 39.82295 -86.77763 37001 ft 632 kts 94°
2026-05-06 13:36 39.82081 -86.66324 36994 ft 632 kts 94°
2026-05-06 13:36 39.81856 -86.54899 36953 ft 632 kts 94°
2026-05-06 13:37 39.81619 -86.43458 36987 ft 632 kts 94°
2026-05-06 13:37 39.81870 -86.32050 37010 ft 634 kts 83°
2026-05-06 13:38 39.83221 -86.20733 37000 ft 634 kts 82°
2026-05-06 13:38 39.84137 -86.11191 37007 ft 634 kts 84°
2026-05-06 13:39 39.85316 -85.99828 36997 ft 634 kts 81°
2026-05-06 13:39 39.86485 -85.88469 37000 ft 634 kts 83°
2026-05-06 13:40 39.87809 -85.75239 36999 ft 634 kts 82°
2026-05-06 13:40 39.88772 -85.65721 36992 ft 634 kts 83°
2026-05-06 13:41 39.89879 -85.54310 36984 ft 634 kts 83°
2026-05-06 13:41 39.91010 -85.42942 36990 ft 634 kts 83°
2026-05-06 13:42 39.92093 -85.31613 36994 ft 634 kts 83°
2026-05-06 13:42 39.93202 -85.20155 37026 ft 634 kts 83°
2026-05-06 13:43 39.94275 -85.08769 36971 ft 632 kts 83°
2026-05-06 13:43 39.95339 -84.97484 36969 ft 633 kts 83°
2026-05-06 13:44 39.96401 -84.86013 36970 ft 633 kts 83°
2026-05-06 13:44 39.97448 -84.74632 36967 ft 633 kts 83°
2026-05-06 13:45 39.98481 -84.63247 36960 ft 633 kts 83°
2026-05-06 13:45 40.00015 -84.46135 36946 ft 633 kts 83°
2026-05-06 13:46 40.01021 -84.34743 36969 ft 633 kts 84°
2026-05-06 13:46 40.02018 -84.23327 36966 ft 633 kts 84°
2026-05-06 13:47 40.03002 -84.11919 36976 ft 633 kts 84°
2026-05-06 13:47 40.03970 -84.00575 36949 ft 633 kts 84°
2026-05-06 13:48 40.04939 -83.89076 36935 ft 633 kts 84°
2026-05-06 13:48 40.05890 -83.77671 36938 ft 633 kts 84°
2026-05-06 13:49 40.06824 -83.66313 36948 ft 633 kts 84°
2026-05-06 13:49 40.07758 -83.54823 36965 ft 633 kts 84°
2026-05-06 13:50 40.08669 -83.43485 36932 ft 632 kts 84°
2026-05-06 13:50 40.09576 -83.32040 36933 ft 632 kts 84°
2026-05-06 13:51 40.10471 -83.20603 36925 ft 631 kts 84°
2026-05-06 13:51 40.11352 -83.09210 36940 ft 632 kts 84°
2026-05-06 13:52 40.12222 -82.97804 36938 ft 631 kts 84°
2026-05-06 13:52 40.13082 -82.86375 36918 ft 631 kts 84°
2026-05-06 13:53 40.13930 -82.74959 36922 ft 630 kts 84°
2026-05-06 13:53 40.14764 -82.63575 36902 ft 630 kts 84°
2026-05-06 13:54 40.14968 -82.57846 36928 ft 628 kts 95°
2026-05-06 13:54 40.14491 -82.52222 36917 ft 622 kts 107°
2026-05-06 13:54 40.12003 -82.41504 36902 ft 612 kts 117°
2026-05-06 13:55 40.09131 -82.31019 36906 ft 618 kts 111°
2026-05-06 13:55 40.07125 -82.20123 36907 ft 622 kts 107°
2026-05-06 13:56 40.04886 -82.09200 36905 ft 617 kts 113°
2026-05-06 13:56 40.02534 -81.98407 36909 ft 620 kts 109°
2026-05-06 13:57 40.00334 -81.87544 36917 ft 618 kts 112°
2026-05-06 13:57 39.97967 -81.76754 36912 ft 620 kts 110°
2026-05-06 13:58 39.95725 -81.65920 36913 ft 619 kts 111°
2026-05-06 13:58 39.93365 -81.55135 36879 ft 620 kts 110°
2026-05-06 13:59 39.91071 -81.44291 36874 ft 619 kts 111°
2026-05-06 13:59 39.88712 -81.33506 36871 ft 619 kts 111°
2026-05-06 14:00 39.86392 -81.22744 36868 ft 617 kts 111°
2026-05-06 14:00 39.84042 -81.12032 36855 ft 615 kts 111°
2026-05-06 14:01 39.81697 -81.01319 36850 ft 615 kts 111°
2026-05-06 14:01 39.79356 -80.90712 36814 ft 614 kts 111°
2026-05-06 14:02 39.76979 -80.79980 36834 ft 614 kts 111°
2026-05-06 14:02 39.74606 -80.69322 36823 ft 614 kts 111°
2026-05-06 14:03 39.72237 -80.58736 36818 ft 614 kts 111°
2026-05-06 14:03 39.69846 -80.48091 36818 ft 614 kts 111°
2026-05-06 14:04 39.67440 -80.37443 36816 ft 614 kts 111°
2026-05-06 14:04 39.65035 -80.26837 36828 ft 614 kts 111°
2026-05-06 14:05 39.62609 -80.16200 36812 ft 614 kts 111°
2026-05-06 14:05 39.60179 -80.05584 36824 ft 614 kts 110°
2026-05-06 14:06 39.57735 -79.94971 36849 ft 615 kts 111°
2026-05-06 14:06 39.55340 -79.84311 36719 ft 619 kts 108°
2026-05-06 14:07 39.54352 -79.78871 36027 ft 621 kts 105°
2026-05-06 14:07 39.53417 -79.73408 35353 ft 621 kts 105°
2026-05-06 14:07 39.52454 -79.67962 34689 ft 619 kts 106°
2026-05-06 14:07 39.51452 -79.62583 34373 ft 611 kts 107°
2026-05-06 14:08 39.49503 -79.51854 34437 ft 611 kts 105°
2026-05-06 14:08 39.48550 -79.46488 34013 ft 613 kts 106°
2026-05-06 14:08 39.47585 -79.41129 33423 ft 611 kts 106°
2026-05-06 14:09 39.46609 -79.35794 32876 ft 608 kts 106°
2026-05-06 14:09 39.45621 -79.30474 32322 ft 605 kts 107°
2026-05-06 14:09 39.44649 -79.25222 31788 ft 600 kts 106°
2026-05-06 14:09 39.43683 -79.19971 31245 ft 595 kts 106°
2026-05-06 14:10 39.42737 -79.14809 30737 ft 589 kts 106°
2026-05-06 14:10 39.41843 -79.09648 30200 ft 585 kts 105°
2026-05-06 14:10 39.40977 -79.04537 29641 ft 579 kts 105°
2026-05-06 14:10 39.40089 -78.99489 29063 ft 573 kts 106°
2026-05-06 14:11 39.39189 -78.94509 28479 ft 567 kts 106°
2026-05-06 14:11 39.38309 -78.89565 27907 ft 562 kts 106°
2026-05-06 14:11 39.37442 -78.84664 27318 ft 556 kts 106°
2026-05-06 14:11 39.36568 -78.79803 26778 ft 551 kts 107°
2026-05-06 14:12 39.35697 -78.75011 26235 ft 546 kts 107°
2026-05-06 14:12 39.34839 -78.70263 25705 ft 541 kts 107°
2026-05-06 14:12 39.33987 -78.65535 25177 ft 536 kts 106°
2026-05-06 14:12 39.33139 -78.60854 24672 ft 530 kts 107°
2026-05-06 14:13 39.32302 -78.56259 24181 ft 525 kts 107°
2026-05-06 14:13 39.31474 -78.51694 23689 ft 521 kts 107°
2026-05-06 14:13 39.30663 -78.47152 23158 ft 517 kts 107°
2026-05-06 14:13 39.29858 -78.42652 22575 ft 512 kts 107°
2026-05-06 14:14 39.29034 -78.38253 22035 ft 506 kts 111°
2026-05-06 14:14 39.27741 -78.34109 21491 ft 492 kts 124°
2026-05-06 14:14 39.25911 -78.30367 20968 ft 480 kts 133°
2026-05-06 14:14 39.23883 -78.26998 20438 ft 472 kts 136°
2026-05-06 14:15 39.21833 -78.23739 19918 ft 468 kts 134°
2026-05-06 14:15 39.19951 -78.20379 19375 ft 467 kts 129°
2026-05-06 14:15 39.18235 -78.16854 18879 ft 464 kts 127°
2026-05-06 14:15 39.16505 -78.13362 18376 ft 457 kts 129°
2026-05-06 14:16 39.14697 -78.10040 17813 ft 452 kts 131°
2026-05-06 14:16 39.12884 -78.06741 17258 ft 448 kts 130°
2026-05-06 14:16 39.11150 -78.03425 16694 ft 445 kts 129°
2026-05-06 14:16 39.09443 -78.00119 16161 ft 441 kts 129°
2026-05-06 14:17 39.07728 -77.96885 15615 ft 436 kts 130°
2026-05-06 14:17 39.06009 -77.93700 15074 ft 432 kts 129°
2026-05-06 14:17 39.04316 -77.90522 14553 ft 429 kts 129°
2026-05-06 14:17 39.02653 -77.87365 14038 ft 425 kts 128°
2026-05-06 14:18 39.00975 -77.84205 13504 ft 421 kts 129°
2026-05-06 14:18 38.99344 -77.81151 12961 ft 418 kts 129°
2026-05-06 14:18 38.97783 -77.78012 12429 ft 418 kts 121°
2026-05-06 14:18 38.96976 -77.75713 12062 ft 419 kts 114°
2026-05-06 14:19 38.96045 -77.70908 11344 ft 419 kts 100°
2026-05-06 14:19 38.95939 -77.67166 10816 ft 419 kts 85°
2026-05-06 14:19 38.96297 -77.64738 10485 ft 418 kts 74°
2026-05-06 14:19 38.97474 -77.61306 9988 ft 414 kts 56°
2026-05-06 14:20 38.99998 -77.57746 9267 ft 405 kts 34°
2026-05-06 14:20 39.01586 -77.56498 8913 ft 399 kts 21°
2026-05-06 14:20 39.04193 -77.55439 8373 ft 388 kts
2026-05-06 14:20 39.06797 -77.55408 7811 ft 361 kts 345°
2026-05-06 14:21 39.09145 -77.56071 7200 ft 334 kts 338°
2026-05-06 14:21 39.11336 -77.56845 6561 ft 320 kts 339°
2026-05-06 14:21 39.13481 -77.57452 5911 ft 312 kts 345°
2026-05-06 14:21 39.15616 -77.57678 5291 ft 305 kts 352°
2026-05-06 14:22 39.17719 -77.57701 4645 ft 298 kts 354°
2026-05-06 14:22 39.19776 -77.57673 3987 ft 293 kts 355°
2026-05-06 14:22 39.21793 -77.57613 3340 ft 290 kts
2026-05-06 14:22 39.23669 -77.56708 2765 ft 292 kts 36°
2026-05-06 14:23 39.25024 -77.54844 2259 ft 282 kts 65°
2026-05-06 14:23 39.25561 -77.52515 1763 ft 262 kts 96°
2026-05-06 14:23 39.25180 -77.50394 1509 ft 229 kts 129°
2026-05-06 14:23 39.24150 -77.48977 1509 ft 213 kts 148°
2026-05-06 14:24 39.22951 -77.47866 1541 ft 209 kts 155°
2026-05-06 14:24 39.21685 -77.47015 1542 ft 206 kts 159°
2026-05-06 14:24 39.20384 -77.46229 1555 ft 209 kts 159°
2026-05-06 14:24 39.19099 -77.45459 1525 ft 203 kts 160°
2026-05-06 14:25 39.17785 -77.44646 1521 ft 214 kts 158°
2026-05-06 14:25 39.16466 -77.43855 1503 ft 199 kts 163°
2026-05-06 14:25 39.15145 -77.43439 1501 ft 194 kts 173°
2026-05-06 14:25 39.13821 -77.43354 1505 ft 193 kts 180°
2026-05-06 14:26 39.12465 -77.43339 1501 ft 192 kts 184°
2026-05-06 14:26 39.11145 -77.43351 1508 ft 189 kts 184°
2026-05-06 14:26 39.09820 -77.43375 1497 ft 190 kts 184°
2026-05-06 14:26 39.08498 -77.43387 1514 ft 191 kts 184°
2026-05-06 14:27 39.07173 -77.43418 1499 ft 189 kts 183°
2026-05-06 14:27 39.05872 -77.43435 1504 ft 188 kts 184°
2026-05-06 14:27 39.04563 -77.43456 1504 ft 190 kts 182°
2026-05-06 14:27 39.03228 -77.43479 1494 ft 193 kts 184°
2026-05-06 14:28 39.01918 -77.43498 1504 ft 188 kts 183°
2026-05-06 14:28 39.00595 -77.43519 1341 ft 184 kts 184°
2026-05-06 14:28 38.99392 -77.43543 1080 ft 174 kts 183°
2026-05-06 14:28 38.98209 -77.43616 988 ft 155 kts 182°
2026-05-06 14:29 38.97172 -77.43616 655 ft 147 kts 181°
2026-05-06 14:29 38.96202 -77.43578 424 ft 135 kts 181°
2026-05-06 14:29 38.95259 -77.43609 310 ft 125 kts 181°
2026-05-06 14:29 38.94579 -77.43619 310 ft 75 kts 181°
2026-05-06 14:30 38.94184 -77.43625 312 ft 39 kts 178°
2026-05-06 14:30 38.93996 -77.43644 315 ft 17 kts 208°
2026-05-06 14:30 38.93908 -77.43710 311 ft 13 kts 211°
2026-05-06 14:30 38.93840 -77.43769 307 ft 11 kts 215°
2026-05-06 14:31 38.93781 -77.43822 307 ft 10 kts 215°
2026-05-06 14:31 38.93748 -77.43856 304 ft 1 kts 232°
2026-05-06 14:31 38.93738 -77.43887 306 ft 11 kts 259°
2026-05-06 14:31 38.93755 -77.43981 305 ft 6 kts 316°
2026-05-06 14:32 38.93784 -77.43990 305 ft 4 kts 360°
2026-05-06 14:32 38.93842 -77.43990 304 ft 12 kts
2026-05-06 14:32 38.93956 -77.43988 304 ft 20 kts
2026-05-06 14:32 38.94087 -77.43989 304 ft 20 kts 358°
2026-05-06 14:33 38.94255 -77.43984 304 ft 28 kts
2026-05-06 14:33 38.94425 -77.43985 305 ft 18 kts
2026-05-06 14:33 38.94577 -77.43981 304 ft 26 kts
2026-05-06 14:33 38.94709 -77.43978 304 ft 21 kts
2026-05-06 14:34 38.94882 -77.43974 303 ft 18 kts
2026-05-06 14:34 38.94986 -77.43977 304 ft 13 kts 346°
2026-05-06 14:34 38.95023 -77.44020 304 ft 3 kts 276°
2026-05-06 14:34 38.95022 -77.44088 302 ft 12 kts 268°
2026-05-06 14:35 38.95021 -77.44220 302 ft 17 kts 270°
2026-05-06 14:35 38.95022 -77.44383 302 ft 20 kts 270°
2026-05-06 14:35 38.95024 -77.44570 302 ft 22 kts 270°
2026-05-06 14:35 38.95024 -77.44776 302 ft 24 kts 270°
2026-05-06 14:36 38.95025 -77.44996 302 ft 26 kts 271°
2026-05-06 14:36 38.95028 -77.45236 304 ft 28 kts 272°
2026-05-06 14:36 38.95029 -77.45419 306 ft 7 kts 269°
2026-05-06 14:36 38.95030 -77.45499 305 ft 11 kts 271°
2026-05-06 14:37 38.95041 -77.45591 304 ft 6 kts 302°
2026-05-06 14:37 38.95055 -77.45605 305 ft 2 kts 333°
2026-05-06 14:37 38.95076 -77.45610 304 ft 4 kts 357°
2026-05-06 14:37 38.95110 -77.45606 306 ft 7 kts
2026-05-06 14:38 38.95169 -77.45602 303 ft 10 kts
2026-05-06 14:38 38.95255 -77.45599 303 ft 14 kts
2026-05-06 14:38 38.95369 -77.45596 303 ft 18 kts 359°
2026-05-06 14:38 38.95506 -77.45601 303 ft 22 kts
2026-05-06 14:39 38.95646 -77.45597 304 ft 14 kts
2026-05-06 14:39 38.95719 -77.45570 306 ft 6 kts 49°
2026-05-06 14:39 38.95723 -77.45542 305 ft 2 kts 95°
2026-05-06 14:39 38.95718 -77.45511 304 ft 5 kts 101°
2026-05-06 14:40 38.95715 -77.45464 305 ft 5 kts 92°
2026-05-06 14:40 38.95714 -77.45441 305 ft 0 kts 92°